If you wish to contribute or participate in the discussions about articles you are invited to join SKYbrary as a registered user

 Actions

Luqa

From SKYbrary Wiki

LMML
Airport
ICAO: LMML
Summary
Name Luqa
Region Europe
Territory Malta MT.gif
Location Luqa
Serving
Coordinates 35° 51' 25.41" N, 14° 28' 40.20" E
Runways
Designator Length Width Surface ROPS
5/23 2377 m7,798.556 ft <br /> 45 m147.638 ft <br /> ASP yes/yes
13/31 3544 m11,627.297 ft <br /> 60 m196.85 ft <br /> ASP yes/yes


METAR
Observation LMML 191615Z VRB03KT 9999 FEW030 12/02 Q1029 NOSIG
Station Luqa
Date/Time 19 January 2021 16:15:00
Wind direction °
Wind speed 03 kts
Lowest cloud amount few clouds
Temperature 12°C
Dew point 2°C
Humidity 50%
QNH 1029 hPa
Weather condition n/a

Luqa Airport

ICAO: LMML IATA: MLA

Description

International airport serving the island of Malta.

Climatology

Dry-summer subtropical ”Mediterranean" climate (Köppen climate classification Csa) - characterized by hot, dry summers and mild winters. During the summer, subtropical high pressure cells dominate, making rainfall unlikely except for the occasional thunderstorm. In the winter, periodic storms bring rain.

Maps

Terrain

Loading map...

Airport Layout

Loading map...


Accidents & Serious Incidents at or in vicinity of LMML

None on SKYbrary